| time (UTC) | temp C | wind direction | speed KPH | gust KPH | rain 1hr cm | rain 24hr cm | rain mn cm | humidity % | barometer mb |
| 20260504081035 | 3 | 0.0 | 0.0 | 0.00 | 0.00 | 0.00 | 89 | ||
| 20260504080135 | 2 | 315 | 0.0 | 3.2 | 0.00 | 0.00 | 0.00 | 88 | |
| 20260504045035 | 1 | 158 | 0.0 | 3.2 | 0.00 | 0.00 | 0.00 | 83 | |
| 20260504044034 | 1 | 0.0 | 0.0 | 0.00 | 0.00 | 0.00 | 83 | ||
| 20260504043035 | 1 | 113 | 1.6 | 3.2 | 0.00 | 0.00 | 0.00 | 85 | |
| 20260504042055 | 1 | 0.0 | 0.0 | 0.00 | 0.00 | 0.00 | 86 | ||
| 20260504041035 | 1 | 0.0 | 0.0 | 0.00 | 0.00 | 0.00 | 86 | ||
| 20260504040035 | 0 | 113 | 0.0 | 3.2 | 0.00 | 0.00 | 0.00 | 86 | |
| 20260504035035 | 0 | 0.0 | 0.0 | 0.00 | 0.00 | 0.00 | 87 | ||
| 20260504034035 | 0 | 0.0 | 0.0 | 0.00 | 0.00 | 0.00 | 89 | ||
| 20260504033035 | 0 | 0.0 | 0.0 | 0.00 | 0.00 | 0.00 | 88 | ||
| 20260504032035 | 0 | 135 | 0.0 | 3.2 | 0.00 | 0.00 | 0.00 | 87 | |
| 20260504031035 | 0 | 0.0 | 0.0 | 0.00 | 0.00 | 0.00 | 85 | ||
| 20260504030056 | 0 | 293 | 1.6 | 3.2 | 0.00 | 0.00 | 0.00 | 86 | |
| 20260504025035 | 1 | 135 | 0.0 | 1.6 | 0.00 | 0.00 | 0.00 | 84 | |
| 20260504024055 | 1 | 135 | 1.6 | 3.2 | 0.00 | 0.00 | 0.00 | 83 | |
| 20260504023055 | 1 | 0.0 | 0.0 | 0.00 | 0.00 | 0.00 | 81 | ||
| 20260504022035 | 1 | 113 | 0.0 | 1.6 | 0.00 | 0.00 | 0.00 | 80 | |
| 20260504021035 | 1 | 113 | 0.0 | 3.2 | 0.00 | 0.00 | 0.00 | 78 | |
| 20260504020035 | 2 | 113 | 1.6 | 3.2 | 0.00 | 0.00 | 0.00 | 77 | |
| 20260504015035 | 2 | 0.0 | 0.0 | 0.00 | 0.00 | 0.00 | 73 | ||
| 20260504014035 | 2 | 0.0 | 0.0 | 0.00 | 0.00 | 0.00 | 73 | ||
| 20260504013035 | 3 | 0.0 | 1.6 | 0.00 | 0.00 | 0.00 | 72 | ||
| 20260504012055 | 3 | 113 | 0.0 | 3.2 | 0.00 | 0.00 | 0.00 | 70 | |
| 20260504011035 | 4 | 0.0 | 0.0 | 0.00 | 0.00 | 0.00 | 66 | ||
| 20260504010035 | 4 | 113 | 0.0 | 1.6 | 0.00 | 0.00 | 0.00 | 66 | |
| 20260504005035 | 5 | 0.0 | 0.0 | 0.00 | 0.00 | 0.00 | 63 | ||
| 20260504004035 | 5 | 0.0 | 0.0 | 0.00 | 0.00 | 0.00 | 59 | ||
| 20260504003035 | 6 | 113 | 1.6 | 3.2 | 0.00 | 0.00 | 0.00 | 58 | |
| 20260504002035 | 6 | 0.0 | 0.0 | 0.00 | 0.00 | 0.00 | 56 | ||
| 20260504001035 | 7 | 113 | 0.0 | 3.2 | 0.00 | 0.00 | 0.00 | 52 | |
| 20260504000035 | 7 | 0.0 | 0.0 | 0.00 | 0.00 | 0.00 | 50 | ||
| 20260503235035 | 8 | 0.0 | 0.0 | 0.00 | 0.00 | 0.00 | 47 | ||
| 20260503234035 | 8 | 332 | 1.6 | 4.8 | 0.00 | 0.00 | 0.00 | 45 | |
| 20260503233055 | 8 | 0.0 | 0.0 | 0.00 | 0.00 | 0.00 | 45 | ||
| 20260503232035 | 8 | 275 | 1.6 | 4.8 | 0.00 | 0.00 | 0.00 | 43 | |
| 20260503231035 | 8 | 318 | 1.6 | 3.2 | 0.00 | 0.00 | 0.00 | 46 | |
| 20260503230035 | 9 | 311 | 3.2 | 9.7 | 0.00 | 0.00 | 0.00 | 43 | |
| 20260503225035 | 9 | 2 | 4.8 | 8.0 | 0.00 | 0.00 | 0.00 | 42 | |
| 20260503224034 | 9 | 316 | 3.2 | 8.0 | 0.00 | 0.00 | 0.00 | 43 | |
| 20260503223055 | 9 | 336 | 3.2 | 4.8 | 0.00 | 0.00 | 0.00 | 42 | |
| 20260503222035 | 10 | 0 | 3.2 | 6.4 | 0.00 | 0.00 | 0.00 | 42 | |
| 20260503221035 | 10 | 348 | 3.2 | 4.8 | 0.00 | 0.00 | 0.00 | 43 | |
| 20260503220035 | 10 | 21 | 3.2 | 4.8 | 0.00 | 0.00 | 0.00 | 42 | |
| 20260503215035 | 10 | 307 | 4.8 | 6.4 | 0.00 | 0.00 | 0.00 | 41 | |
| 20260503214055 | 10 | 342 | 4.8 | 6.4 | 0.00 | 0.00 | 0.00 | 41 | |
| 20260503213035 | 10 | 335 | 4.8 | 8.0 | 0.00 | 0.00 | 0.00 | 43 | |
| 20260503212055 | 10 | 339 | 6.4 | 8.0 | 0.00 | 0.00 | 0.00 | 42 | |
| 20260503211035 | 10 | 260 | 4.8 | 6.4 | 0.00 | 0.00 | 0.00 | 42 | |
| 20260503210035 | 10 | 343 | 4.8 | 8.0 | 0.00 | 0.00 | 0.00 | 43 | |
| 20260503205054 | 10 | 325 | 4.8 | 8.0 | 0.00 | 0.00 | 0.00 | 42 | |
| 20260503204034 | 10 | 295 | 8.0 | 11.3 | 0.00 | 0.00 | 0.00 | 42 | |
| 20260503203035 | 9 | 310 | 6.4 | 11.3 | 0.00 | 0.00 | 0.00 | 44 | |
| 20260503202035 | 10 | 255 | 3.2 | 4.8 | 0.00 | 0.00 | 0.00 | 45 | |
| 20260503201135 | 10 | 286 | 4.8 | 11.3 | 0.00 | 0.00 | 0.00 | 43 | |
| 20260503200034 | 9 | 32 | 4.8 | 8.0 | 0.00 | 0.00 | 0.00 | 46 | |
| 20260503195035 | 9 | 315 | 6.4 | 11.3 | 0.00 | 0.00 | 0.00 | 44 | |
| 20260503194035 | 10 | 352 | 4.8 | 8.0 | 0.00 | 0.00 | 0.00 | 43 | |
| 20260503193034 | 8 | 318 | 8.0 | 11.3 | 0.00 | 0.00 | 0.00 | 46 | |
| 20260503192035 | 8 | 320 | 8.0 | 11.3 | 0.00 | 0.00 | 0.00 | 44 | |
| 20260503191034 | 9 | 339 | 6.4 | 11.3 | 0.00 | 0.00 | 0.00 | 42 | |
| 20260503190035 | 9 | 309 | 8.0 | 11.3 | 0.00 | 0.00 | 0.00 | 40 | |
| 20260503185034 | 10 | 325 | 8.0 | 16.1 | 0.00 | 0.00 | 0.00 | 40 | |
| 20260503184035 | 10 | 345 | 6.4 | 8.0 | 0.00 | 0.00 | 0.00 | 41 | |
| 20260503183035 | 10 | 276 | 4.8 | 8.0 | 0.00 | 0.00 | 0.00 | 40 | |
| 20260503182114 | 9 | 318 | 8.0 | 11.3 | 0.00 | 0.00 | 0.00 | 41 | |
| 20260503181055 | 10 | 304 | 6.4 | 11.3 | 0.00 | 0.00 | 0.00 | 39 | |
| 20260503180034 | 10 | 304 | 9.7 | 12.9 | 0.00 | 0.00 | 0.00 | 39 | |
| 20260503175034 | 9 | 318 | 9.7 | 14.5 | 0.00 | 0.00 | 0.00 | 39 | |
| 20260503174054 | 10 | 312 | 9.7 | 16.1 | 0.00 | 0.00 | 0.00 | 38 | |
| 20260503173053 | 10 | 336 | 9.7 | 11.3 | 0.00 | 0.00 | 0.00 | 39 | |
| 20260503172033 | 10 | 333 | 9.7 | 12.9 | 0.00 | 0.00 | 0.00 | 38 | |
| 20260503171053 | 10 | 347 | 9.7 | 14.5 | 0.00 | 0.00 | 0.00 | 39 |